Theta_e
312 311 308 304 302 301 299 298 298 297 297 297 297 298 298 298 298 297 297 297 297 297 296 296 295 295 295 294 293 293 292 292 292 292 292 291 290 289 289 288 287 287 287 286 286 286 286 286 286 286 286 285 285 285 285 285 284 284 284 284 284 284 284 284 284 284 284 284 284 284 284 284 284 284 284 283 283 283 283 282 282 282 281 281 281
312 310 307 304 302 301 299 298 298 297 297 297 297 297 297 297 297 297 297 296 296 296 296 295 295 294 294 293 293 292 292 292 292 291 291 291 290 289 288 288 287 287 286 286 286 286 286 286 286 286 285 285 285 285 284 284 284 284 284 284 284 283 284 284 283 284 284 284 284 284 284 284 284 284 283 283 283 283 283 282 281 281 281 281 281
311 308 306 304 302 300 298 298 297 297 297 297 297 297 297 297 297 296 296 296 296 295 295 295 294 294 293 293 292 292 291 291 291 291 291 290 290 289 288 288 287 286 286 286 286 286 286 286 286 286 285 285 285 284 284 284 284 284 284 283 283 283 283 283 283 283 283 284 284 283 284 284 284 283 283 283 282 282 282 282 281 281 281 281 281
311 307 305 303 301 300 298 298 297 297 297 297 297 297 297 296 296 296 295 295 295 295 295 294 294 293 293 292 292 291 291 291 291 291 290 290 289 288 288 287 287 286 286 286 286 286 286 286 286 286 285 285 285 284 284 284 284 283 283 283 283 283 283 283 283 283 283 283 283 283 283 283 283 283 283 283 282 282 281 281 281 281 281 280 280
310 306 304 302 301 300 298 297 297 297 297 297 297 296 296 296 296 295 295 295 295 295 294 294 294 293 292 292 291 291 291 291 291 290 290 289 289 288 288 287 287 286 286 286 286 286 286 286 286 286 286 285 285 284 284 284 283 283 283 283 283 283 283 283 283 283 283 283 283 283 283 283 283 283 282 282 282 282 281 281 281 280 280 280 280
309 306 304 302 301 300 298 297 297 297 297 297 297 296 296 296 296 295 295 295 295 294 294 294 293 293 292 292 291 291 290 291 291 290 289 289 289 288 287 287 287 286 286 286 286 286 286 286 286 286 286 285 284 284 283 283 283 283 283 283 283 283 283 283 283 283 283 283 283 283 283 283 283 283 282 281 281 281 281 281 281 280 279 280 279
308 305 303 302 301 299 298 298 297 297 297 297 296 296 296 296 295 295 295 295 294 294 294 293 293 292 292 291 291 290 290 290 290 290 289 289 288 288 287 287 287 287 286 286 286 286 286 286 286 286 286 285 284 284 283 283 283 283 283 283 283 283 283 282 282 282 283 283 283 283 283 283 282 282 282 281 281 280 279 279 280 280 279 278 278
307 304 303 302 301 299 299 298 297 297 297 296 296 296 296 295 295 295 295 294 294 294 294 293 292 292 291 291 290 290 290 290 290 290 289 289 288 288 287 287 287 287 287 287 287 287 287 287 286 286 286 285 285 284 283 283 283 283 283 283 282 282 282 282 282 282 282 282 282 282 282 282 282 282 281 280 280 280 278 277 277 278 277 277 277
306 304 302 302 301 299 299 298 297 297 296 296 296 295 295 295 294 294 294 294 294 293 293 292 291 291 291 290 290 290 290 290 290 290 289 289 289 288 287 287 287 287 287 287 287 287 287 287 286 286 286 285 285 284 283 283 283 283 282 282 282 282 282 282 282 282 282 282 282 282 282 282 282 281 281 280 278 278 277 276 276 276 276 276 276
305 304 302 301 300 299 299 298 297 296 296 296 295 295 295 294 294 294 293 293 293 293 292 291 291 291 290 290 290 290 290 290 290 289 289 289 289 288 288 287 287 287 286 286 287 287 287 286 286 286 286 285 285 284 283 283 283 282 282 282 282 282 282 282 282 282 282 282 282 282 282 282 280 279 280 279 277 276 276 276 276 275 275 275 276
305 304 303 301 300 300 298 298 297 296 296 295 295 295 294 294 293 293 293 292 292 292 291 291 291 290 290 290 290 290 290 290 290 289 289 289 289 288 288 287 287 287 286 286 286 286 286 286 286 286 286 285 285 284 283 283 282 282 282 282 282 282 282 282 282 282 282 281 281 281 281 281 279 278 278 277 277 276 275 275 275 275 274 274 275
304 304 303 302 301 300 298 298 297 296 296 295 295 294 293 293 293 292 292 292 292 291 291 291 290 290 290 290 289 289 290 290 289 289 289 289 289 288 288 288 287 287 287 286 286 286 286 286 286 286 285 285 285 284 283 283 282 282 282 281 281 281 281 281 281 281 281 281 281 280 280 279 278 277 276 276 276 276 275 274 274 274 274 274 275
304 303 302 302 301 300 299 298 297 296 295 295 294 293 293 293 292 292 292 292 292 291 291 290 290 290 290 290 289 289 289 289 289 289 289 289 289 288 288 288 288 287 287 287 286 286 286 286 286 286 286 285 285 284 284 283 282 282 281 281 281 281 281 281 281 281 281 281 281 280 278 277 277 276 275 275 275 275 275 275 275 274 275 275 275
303 302 302 301 301 300 299 297 297 296 295 294 293 293 292 292 292 292 291 291 291 291 291 290 290 290 290 289 289 289 289 289 289 289 289 289 289 288 288 288 288 287 287 287 287 286 286 286 286 286 286 286 285 284 284 283 282 282 281 281 281 281 281 281 281 281 280 280 280 279 278 276 276 276 275 274 274 274 274 275 275 275 275 275 275
302 302 301 301 300 299 298 297 297 296 295 293 293 292 292 292 291 291 291 291 291 291 290 290 290 290 289 289 289 289 289 289 289 289 289 289 289 288 288 288 288 287 287 287 287 287 286 286 286 286 286 286 285 284 284 283 282 282 281 281 281 281 281 281 281 281 280 280 279 278 277 276 275 275 274 274 274 275 275 274 274 274 275 275 275
301 301 301 300 299 299 298 297 297 296 294 293 292 292 292 292 291 291 291 291 291 290 290 290 289 289 289 289 289 289 289 289 289 289 289 289 288 288 288 288 288 288 287 287 287 287 287 286 286 286 286 286 285 285 284 283 283 282 282 281 281 281 281 281 281 281 280 279 277 277 276 276 275 275 275 275 275 275 275 275 274 274 274 275 275
300 300 300 299 299 298 298 297 297 296 294 293 292 292 292 292 291 291 291 291 290 290 290 290 289 289 289 289 289 289 289 289 289 289 288 288 288 288 288 288 288 288 287 287 287 287 287 286 286 286 286 286 285 285 284 284 283 283 282 281 281 281 281 281 281 280 279 278 278 277 276 276 275 275 275 275 274 274 275 274 274 274 274 275 275
300 299 299 299 299 298 298 297 296 295 294 293 293 292 292 292 291 291 291 290 290 290 290 289 289 289 288 288 288 288 289 289 289 289 288 288 287 287 287 288 288 288 287 287 287 287 287 286 286 286 286 285 285 285 284 284 283 283 282 281 281 281 281 281 281 280 279 279 278 277 276 276 276 275 275 275 274 274 274 274 274 274 274 274 274
299 299 298 298 298 297 297 297 296 295 295 294 293 292 292 292 291 291 290 290 290 289 289 289 289 288 288 288 288 288 288 288 288 288 288 288 287 287 287 287 287 288 287 287 287 287 287 287 286 286 286 285 285 285 285 284 284 283 282 281 282 282 281 281 281 280 279 279 279 278 277 276 275 275 275 274 274 274 274 274 274 274 274 274 273
299 298 298 297 297 296 296 296 295 295 294 294 293 292 292 291 291 290 290 290 289 289 289 288 288 288 288 288 288 288 288 288 288 288 288 288 287 287 286 286 286 287 288 287 287 287 287 287 286 286 286 285 285 285 284 284 283 283 282 281 282 282 281 280 280 279 279 279 278 277 276 275 275 275 274 274 274 274 274 274 274 274 274 274 273
298 297 297 296 296 296 295 295 294 294 294 293 292 292 291 291 290 290 290 289 289 289 288 288 288 288 288 288 288 288 287 288 288 288 288 287 287 287 286 286 286 287 287 287 287 287 287 287 286 286 285 285 285 285 284 284 283 283 282 281 281 281 280 280 280 279 279 278 278 277 276 275 275 275 274 274 274 274 274 274 274 274 274 273 273
297 297 296 296 296 295 295 294 294 293 293 292 292 291 291 290 290 289 289 289 288 288 288 288 288 288 287 287 287 287 287 287 287 287 287 287 287 287 286 286 286 286 287 287 287 287 287 287 286 286 285 285 284 284 284 284 283 282 282 281 280 280 279 279 279 279 278 277 277 277 276 275 275 274 274 274 273 274 274 274 274 274 273 273 273
297 296 296 296 295 295 294 294 293 293 293 292 292 291 291 290 290 289 289 288 288 288 288 288 287 287 287 287 287 287 287 287 287 287 287 287 287 287 286 286 286 286 287 287 287 287 287 286 286 286 285 284 284 284 284 283 283 282 281 280 279 279 279 279 279 278 277 277 277 276 276 275 275 274 273 273 273 274 274 274 274 274 273 273 273
296 296 296 295 295 295 294 294 293 293 293 292 292 291 291 290 290 289 289 288 288 288 288 288 287 287 287 287 287 287 287 287 287 287 287 287 286 286 286 286 286 286 287 287 287 287 287 286 286 285 285 284 284 283 283 283 283 282 281 280 280 280 279 278 278 277 277 277 276 276 276 275 274 274 273 273 273 273 274 273 274 273 273 273 273
296 296 295 295 295 295 294 294 294 294 293 293 292 292 292 291 291 290 290 289 289 289 289 289 288 288 288 288 288 288 288 288 288 287 287 287 287 286 286 286 285 285 286 286 287 286 286 286 285 285 285 284 284 283 283 283 282 281 280 279 280 280 279 277 277 276 276 276 276 276 275 274 274 273 273 273 273 273 273 273 273 273 273 273 274
295 294 294 294 294 294 294 294 294 293 293 293 293 293 293 292 292 292 291 291 291 291 291 290 290 290 289 289 290 290 290 289 289 289 288 287 287 287 286 286 285 285 285 285 286 286 286 286 285 285 284 284 284 283 283 282 281 280 279 279 279 279 278 277 276 276 276 276 275 275 275 274 273 273 273 273 273 273 273 273 273 273 273 273 273
292 292 292 292 292 292 292 292 292 292 292 291 291 291 292 291 291 291 291 291 291 291 291 291 291 291 291 291 291 291 290 290 290 289 289 288 288 287 286 285 285 284 284 284 284 285 285 285 285 284 284 283 283 282 282 282 281 279 279 278 278 278 277 276 275 275 275 275 275 275 274 273 273 273 273 272 272 272 272 272 273 273 273 273 273
291 291 291 291 291 291 291 291 291 291 290 290 290 290 290 290 290 290 290 290 290 290 290 290 290 290 290 290 289 289 289 289 289 289 288 288 287 287 286 285 285 284 284 284 283 283 284 284 283 283 283 282 281 281 281 281 280 279 278 278 277 277 276 275 275 275 274 274 274 274 274 273 273 273 272 272 272 272 272 272 272 272 272 272 273
291 291 291 291 291 291 291 291 291 291 290 290 290 290 290 290 290 290 290 290 290 289 289 289 289 289 288 288 288 288 288 289 288 287 287 287 287 286 286 285 285 284 284 283 282 282 282 282 282 281 281 280 280 280 279 279 279 278 278 277 277 276 275 275 274 274 274 274 273 273 273 273 273 273 272 272 271 271 272 272 272 272 272 272 272
291 291 291 291 291 291 291 291 291 291 291 290 290 290 290 290 290 290 289 289 289 289 289 289 289 288 288 288 288 287 288 288 287 287 286 286 286 286 285 285 284 283 283 282 281 281 281 281 280 280 280 280 280 280 279 279 278 278 277 277 276 276 275 274 274 274 273 273 273 273 273 272 272 272 272 271 271 271 271 272 272 272 272 272 272
291 291 291 291 291 291 291 291 291 291 290 290 290 290 290 290 290 289 289 289 288 288 288 288 287 287 287 287 287 286 286 286 286 285 285 285 285 285 284 283 282 282 281 281 280 280 281 280 281 281 280 280 280 280 280 279 278 277 277 276 276 275 274 274 274 273 273 273 272 273 272 272 272 272 271 271 271 271 271 271 271 272 272 271 271
291 291 291 291 291 291 291 291 291 291 290 290 290 290 290 290 289 289 289 288 288 288 287 287 286 286 286 286 286 286 285 285 284 284 284 283 283 282 282 281 281 280 279 279 280 280 280 280 280 280 280 280 280 280 279 279 278 277 276 276 276 275 275 274 273 273 273 273 272 272 272 272 271 271 271 271 270 271 271 271 271 271 271 271 271
291 290 290 291 290 290 290 290 290 290 290 290 290 290 289 289 289 289 288 288 288 287 287 287 286 286 285 285 285 285 284 284 283 283 282 282 281 280 280 279 279 278 278 278 278 279 279 279 279 279 279 279 279 279 278 278 277 276 276 276 276 275 274 274 273 273 273 272 272 272 272 271 271 270 270 270 270 270 271 271 271 271 271 271 271
290 290 290 290 290 290 290 290 290 289 289 289 289 289 289 289 289 289 288 288 287 287 286 286 286 285 285 285 284 283 283 282 281 281 280 279 279 279 278 278 278 277 277 277 277 278 278 278 278 278 278 278 278 277 277 277 276 276 276 276 275 274 274 273 273 273 272 272 272 272 271 271 270 270 270 270 270 270 270 270 271 271 271 271 271
290 290 290 290 290 290 289 289 289 289 289 289 289 289 289 288 288 288 288 287 287 286 286 285 285 284 284 284 283 282 281 281 280 279 278 277 277 277 277 277 277 276 277 277 277 277 277 277 277 277 277 277 276 276 276 276 276 276 275 275 275 274 273 273 273 272 272 272 271 271 271 270 270 270 269 269 269 270 270 270 270 270 270 270 270
290 290 290 290 290 289 289 289 289 289 289 289 289 288 288 288 287 287 287 286 286 286 285 285 284 283 283 283 282 282 281 280 279 278 277 277 277 276 276 276 276 276 276 276 276 276 276 276 276 276 276 276 276 276 276 276 276 275 275 275 274 273 273 273 273 272 271 271 271 271 270 270 270 269 269 269 269 269 270 270 270 270 270 270 269
290 290 290 289 289 289 289 289 289 289 289 288 288 288 287 287 286 286 285 285 285 285 284 284 283 282 282 281 281 281 280 279 279 278 277 277 276 276 276 276 276 276 276 276 276 276 276 276 276 276 275 275 275 275 275 275 275 274 274 274 273 273 272 272 272 271 271 271 271 270 270 270 269 269 269 269 269 269 269 269 269 269 269 269 269
290 290 289 289 289 289 289 288 288 288 287 287 287 286 286 285 285 285 284 284 284 283 283 283 282 282 281 281 280 280 280 279 279 278 278 277 277 276 276 276 276 276 276 276 275 275 275 275 275 274 274 274 274 274 274 274 273 273 273 273 272 272 271 271 271 271 270 270 270 270 270 269 269 269 268 269 269 269 269 269 269 269 269 269 268
289 289 289 289 288 288 288 287 287 286 286 286 285 285 285 284 284 283 283 283 282 282 282 281 281 281 281 280 280 280 279 279 279 278 278 277 277 276 276 276 276 276 275 275 275 275 274 274 274 273 273 273 272 272 272 272 272 272 271 271 271 271 270 270 270 270 270 270 270 270 269 269 268 268 268 269 269 269 269 269 268 268 268 268 268
289 288 288 288 287 287 287 286 286 285 285 285 284 284 284 283 283 283 282 282 282 281 281 281 281 280 280 279 279 278 278 278 278 277 277 276 276 275 275 275 274 274 274 274 274 274 274 273 273 273 272 272 272 271 271 271 270 270 270 269 269 269 269 269 269 269 269 269 269 269 269 268 268 268 268 268 268 268 268 268 268 267 267 267 267
288 287 287 287 286 286 285 285 285 285 284 284 284 283 283 282 282 282 281 281 281 281 280 280 279 279 278 277 277 276 276 276 275 275 274 274 274 273 273 273 272 272 272 272 272 272 272 272 271 271 271 271 271 270 270 269 269 269 268 268 268 268 268 268 268 269 269 269 269 269 268 268 268 268 268 268 268 268 268 267 267 267 267 267 266
287 286 286 285 285 285 284 284 284 284 284 283 283 283 282 282 281 281 280 280 279 279 278 278 277 276 275 275 274 274 274 273 273 273 272 272 272 272 271 271 271 271 271 270 270 270 270 270 270 269 269 269 268 268 268 268 267 267 267 266 266 267 267 267 268 268 268 268 268 268 268 267 267 268 268 268 268 268 267 267 267 267 266 266 266
285 285 285 284 284 284 284 283 283 283 282 282 282 281 281 280 280 279 278 277 277 276 276 275 275 274 273 273 273 272 272 272 272 271 271 271 271 270 270 270 270 270 269 269 268 268 268 268 268 267 267 267 266 266 266 266 266 266 265 265 266 266 266 267 267 267 268 268 267 267 267 267 267 267 267 268 267 267 266 266 266 266 266 266 266
284 284 284 283 283 283 283 282 282 281 281 280 280 279 279 278 277 276 276 275 275 274 274 274 273 273 272 272 272 271 271 271 271 270 270 270 270 269 269 269 269 269 268 268 267 267 266 266 266 266 266 266 265 265 265 265 265 265 265 265 265 266 266 266 267 267 267 267 266 267 267 267 267 267 267 267 267 266 266 266 266 266 266 266 266
283 283 283 282 282 282 281 280 280 279 279 278 277 277 276 276 275 275 274 274 274 273 273 273 272 272 271 271 271 270 270 270 270 270 270 269 269 269 269 269 268 268 268 267 266 266 266 265 265 265 265 265 265 265 264 264 264 264 264 265 265 266 266 266 266 266 266 266 266 266 267 267 267 267 267 266 266 266 266 266 266 266 266 266 266
282 281 281 280 280 279 279 278 278 277 277 276 276 275 275 275 274 274 273 273 272 272 272 271 271 271 270 270 270 270 270 270 270 269 269 269 269 269 268 268 268 267 267 267 266 266 265 265 265 265 265 265 265 264 264 264 264 264 264 264 265 265 265 265 265 266 266 266 266 266 267 267 267 266 266 266 265 265 266 266 266 266 266 266 266
280 280 279 279 278 278 277 277 276 276 276 275 275 274 274 273 273 272 272 272 271 271 271 270 270 270 270 270 270 270 270 269 269 269 269 268 268 268 268 268 267 267 267 266 266 266 265 265 265 265 264 264 264 264 264 264 264 264 264 264 264 265 265 265 265 265 266 266 266 266 266 266 266 266 265 265 265 265 266 266 266 266 266 266 266
278 278 278 277 277 277 276 276 275 275 275 274 274 273 273 272 272 271 271 271 270 270 270 270 270 270 270 269 269 269 269 269 268 268 268 268 268 268 268 267 267 267 267 266 266 266 265 265 265 265 265 265 264 264 264 264 264 264 264 264 264 264 265 265 265 265 266 266 266 266 266 266 265 265 265 265 265 266 266 266 266 266 266 265 265
277 277 276 276 276 275 275 275 274 274 273 273 273 272 272 271 271 270 270 270 270 270 269 269 269 269 269 269 269 268 268 268 268 268 267 267 267 267 267 267 267 267 267 266 266 266 265 265 265 265 265 265 265 265 264 264 264 264 264 264 264 265 265 265 265 265 265 265 265 265 265 265 265 265 265 265 265 266 266 266 266 266 265 265 265
276 275 275 275 274 274 274 273 273 273 272 272 272 271 271 270 270 270 270 269 269 269 269 269 269 269 268 268 268 268 268 267 267 267 267 267 266 266 266 266 266 266 266 266 266 265 265 265 265 265 265 265 265 265 265 265 265 265 265 265 265 265 265 265 265 265 265 265 265 265 265 265 265 265 265 265 265 266 266 266 266 266 266 265 265
274 274 274 274 273 273 273 272 272 272 271 271 271 270 270 270 270 269 269 269 269 269 269 268 268 268 268 268 267 267 267 267 267 267 266 266 266 266 266 266 266 266 265 265 265 265 265 265 265 265 265 265 265 265 265 265 265 265 265 265 265 265 265 265 265 265 265 265 265 264 264 264 265 265 265 265 266 266 266 266 266 266 266 265 265
Wind_Speed
35 37 38 40 41 42 41 39 36 34 33 31 28 27 26 24 23 22 21 20 19 17 15 14 14 13 12 11 10 10 8 7 5 5 4 4 4 5 6 5 5 4 4 5 5 5 6 6 7 7 8 9 10 10 11 11 11 12 12 12 12 13 16 18 22 27 29 28 29 30 31 34 36 37 38 39 39 40 41 42 43 42 42 41 41
37 38 40 41 42 43 42 39 37 35 33 32 29 28 26 25 24 23 22 21 19 17 16 16 16 15 13 13 12 11 10 8 7 6 5 4 5 5 6 6 5 5 5 6 6 7 7 8 8 8 9 10 11 12 12 12 12 13 13 13 13 14 16 18 21 25 29 29 29 30 31 34 36 37 39 41 41 42 43 43 43 43 42 41 41
38 39 41 42 43 44 42 40 38 36 35 33 31 29 28 26 26 24 23 22 20 19 18 18 17 16 15 15 14 12 11 9 8 7 5 4 5 6 6 6 6 6 6 7 7 8 8 9 10 10 11 12 13 13 14 14 13 14 14 14 15 15 16 18 21 24 28 30 30 31 32 34 36 38 39 41 42 42 43 44 43 43 42 42 41
39 41 42 42 44 45 43 41 39 38 36 34 32 30 29 28 27 25 24 23 21 21 20 20 18 17 17 16 15 13 12 10 10 8 6 4 5 6 7 7 7 7 7 7 8 9 9 10 11 12 12 13 14 15 15 15 15 15 15 16 16 17 18 19 20 23 26 29 30 31 32 34 36 38 39 41 42 42 42 43 43 43 43 42 42
41 42 43 44 45 46 44 42 41 40 38 36 33 32 31 30 28 27 26 24 23 23 22 21 20 19 18 17 16 14 13 12 11 9 6 5 6 7 7 8 8 8 8 8 9 9 10 11 12 13 14 15 16 16 16 16 16 16 17 17 18 19 19 20 21 23 25 28 30 31 32 34 36 37 38 40 42 43 42 42 43 44 44 43 43
43 44 45 45 47 47 45 44 43 41 39 37 35 34 32 31 30 28 27 26 25 25 23 22 20 20 20 19 17 15 14 14 13 10 7 6 7 7 8 8 8 8 8 9 9 10 11 12 14 15 16 16 17 17 18 18 18 18 18 19 20 20 21 21 22 23 25 28 30 31 33 34 36 38 38 39 41 42 43 44 45 44 44 46 46
45 45 46 46 47 48 47 46 44 42 39 37 36 35 34 32 31 29 28 27 27 26 24 22 21 21 21 20 18 17 16 16 14 11 8 7 7 8 9 9 9 9 9 9 10 11 12 13 15 16 17 17 18 18 19 19 20 20 20 21 21 22 22 22 23 24 26 28 30 32 33 34 36 37 38 38 39 40 40 43 47 47 46 46 46
46 46 47 48 49 49 47 46 44 42 40 38 37 36 35 34 32 31 30 29 29 27 24 23 23 23 22 21 19 18 18 17 15 12 10 8 9 9 10 10 10 10 10 10 11 12 13 14 16 17 18 18 19 20 20 21 22 22 22 22 22 23 23 23 24 25 27 29 30 32 33 35 36 36 37 38 39 41 39 38 43 47 46 46 44
48 48 48 49 50 49 48 46 45 43 42 40 39 38 36 35 34 32 32 31 29 27 26 25 24 24 24 22 21 21 20 19 16 13 11 10 10 10 11 11 11 11 11 11 12 13 14 15 16 17 18 19 19 21 21 23 23 23 23 23 24 24 24 24 25 26 27 29 30 31 33 35 35 36 38 38 37 39 39 38 41 43 44 46 45
49 49 49 50 50 49 48 47 46 45 43 42 41 39 38 37 35 34 33 32 31 29 28 27 26 26 25 24 23 23 21 20 17 15 13 12 12 12 12 12 13 13 13 13 13 14 15 16 17 18 19 19 20 21 22 23 24 25 25 25 25 25 25 25 25 26 28 29 30 31 33 34 33 33 36 37 35 35 37 38 40 40 40 45 48
50 50 49 49 50 50 49 49 47 46 44 43 42 41 39 38 37 36 35 33 32 31 29 29 28 27 26 25 25 24 22 20 18 16 15 15 15 14 14 14 14 14 14 14 14 15 16 17 17 18 19 19 20 21 23 24 25 25 26 26 25 25 25 26 26 27 29 29 29 30 31 32 32 31 32 34 34 35 35 34 34 36 39 43 49
49 49 49 48 50 51 51 50 48 47 46 44 43 42 40 40 39 38 37 35 34 32 31 30 30 28 27 27 27 26 24 22 20 18 18 17 17 17 16 16 16 16 16 16 15 15 16 17 18 19 19 20 21 22 23 24 24 25 26 26 26 26 26 26 27 28 29 29 29 28 27 29 30 29 29 31 33 33 34 33 33 37 40 42 46
49 49 49 49 51 52 51 51 49 48 47 45 44 43 42 41 40 39 38 36 35 34 32 32 31 29 29 29 29 27 25 23 22 20 20 20 19 19 18 18 19 19 18 18 17 17 17 17 18 19 20 20 21 22 23 23 24 25 26 26 26 26 26 26 26 27 27 27 28 27 24 25 27 28 28 28 29 31 34 36 36 38 40 41 43
49 49 49 50 51 51 51 51 49 48 47 45 44 44 43 42 42 40 39 37 36 36 34 33 32 31 31 31 30 29 26 25 23 22 22 22 21 21 21 20 21 21 21 20 19 19 19 19 19 20 20 21 21 22 23 23 24 25 26 26 26 26 27 27 27 27 26 25 26 25 24 24 25 26 25 24 27 30 33 36 37 37 39 40 41
49 49 49 50 51 51 51 50 49 48 47 46 45 44 44 43 42 40 39 39 38 37 35 34 33 33 33 32 32 30 28 27 25 24 24 23 23 24 23 23 23 23 23 22 22 21 21 21 21 21 21 21 21 22 23 23 24 26 26 27 27 27 28 28 27 27 26 23 23 24 24 24 23 22 23 24 27 29 30 32 34 35 38 39 39
49 49 50 50 50 50 49 49 49 48 47 46 46 45 44 43 42 41 41 41 40 38 36 36 35 34 34 34 33 32 30 28 27 27 26 25 26 26 26 26 26 26 25 24 24 24 24 23 23 23 22 21 21 22 23 24 25 27 28 27 28 29 30 29 28 26 23 21 23 24 23 21 20 20 22 24 26 28 29 30 32 33 36 38 39
48 48 48 48 48 47 48 48 48 48 48 47 46 45 44 43 42 42 43 42 40 39 38 38 37 36 35 35 35 34 32 30 30 29 28 27 28 28 28 28 29 28 27 26 27 27 26 25 25 25 24 23 22 22 23 24 26 28 28 28 29 30 31 30 28 26 22 22 24 24 20 19 19 20 20 22 23 26 29 30 31 32 34 36 38
45 45 45 44 45 45 46 47 47 47 47 46 45 44 43 43 43 43 43 43 41 40 39 39 38 37 37 37 36 35 34 32 32 31 31 30 30 30 31 31 31 31 29 29 29 29 28 27 27 27 26 24 23 23 24 25 27 29 29 30 31 32 32 30 28 26 25 25 26 23 19 18 19 19 19 20 22 24 27 29 30 31 33 34 36
39 39 39 40 41 42 44 45 45 45 45 44 43 43 43 43 43 43 43 42 41 40 40 40 39 38 38 39 38 37 36 35 34 34 34 33 33 33 34 34 34 34 32 31 31 31 30 30 29 29 28 26 25 25 25 26 28 29 29 31 33 33 31 29 28 27 27 27 27 24 21 19 18 19 19 20 21 23 25 26 28 29 31 33 33
30 31 32 33 35 37 39 41 42 42 42 41 41 42 43 43 43 42 42 42 41 41 41 41 41 40 40 41 40 39 39 38 37 37 37 36 36 36 37 38 38 36 34 33 33 33 33 33 32 30 29 28 27 27 27 27 28 29 30 32 34 33 30 29 29 29 28 28 27 25 23 20 19 19 19 19 20 21 23 24 25 26 29 31 32
23 24 25 27 29 31 33 35 36 37 37 38 39 40 41 42 42 41 41 41 41 41 42 42 42 42 42 43 43 42 41 41 40 39 39 39 39 39 41 41 40 38 36 35 35 35 35 35 34 31 30 29 29 29 29 28 29 30 31 32 33 31 29 30 31 29 29 28 26 25 23 21 20 19 19 19 19 20 21 23 24 25 26 28 31
16 18 19 21 22 24 26 28 29 31 32 34 35 37 38 39 40 40 40 40 40 41 41 42 42 43 43 44 45 44 43 43 42 42 42 42 42 43 44 43 42 40 39 38 38 37 37 37 35 33 31 30 30 30 30 30 30 31 32 32 31 29 29 30 31 30 29 28 27 26 24 22 21 20 19 19 19 20 21 22 23 24 25 26 28
12 14 15 16 18 19 21 22 23 25 27 28 30 32 33 34 36 36 37 38 38 39 40 40 41 42 43 44 44 45 44 45 45 44 44 44 44 45 45 45 44 43 43 42 40 40 39 38 37 35 34 32 31 31 31 30 31 32 32 31 30 30 30 31 31 30 30 29 28 27 25 22 22 21 19 19 20 20 22 22 23 23 25 25 26
11 12 12 14 14 15 16 18 19 21 22 24 26 27 28 30 31 32 34 35 36 37 37 38 40 40 41 41 42 42 43 44 44 44 45 45 45 46 46 46 46 46 46 45 43 42 42 40 39 38 37 35 33 33 33 32 33 33 32 31 31 31 31 31 30 30 30 29 28 28 25 23 23 22 21 21 21 21 22 23 23 23 25 27 27
9 9 10 11 11 12 13 15 16 18 19 20 22 23 24 26 27 29 30 32 33 34 34 35 37 38 38 39 39 39 40 41 42 43 45 46 46 47 47 47 47 48 48 48 47 45 43 42 41 41 39 37 36 35 35 35 34 32 30 31 32 32 31 31 31 31 31 30 29 28 26 24 23 23 23 22 22 22 23 24 24 24 26 28 29
7 7 7 8 8 10 11 12 13 15 16 17 18 19 21 22 24 26 27 29 30 31 32 33 35 36 37 38 38 39 40 41 42 43 45 46 47 47 48 48 49 49 49 49 49 47 46 45 44 43 41 40 39 38 36 34 32 30 30 32 33 32 32 32 32 32 31 30 29 29 26 24 24 24 24 24 23 22 24 26 27 26 27 30 31
6 7 7 7 8 9 9 10 11 12 13 14 16 17 19 20 22 24 25 26 28 29 31 32 34 35 36 37 37 39 40 41 42 43 44 46 47 47 48 48 48 48 49 49 49 49 48 47 46 44 43 41 40 38 37 35 33 31 30 31 32 32 33 34 33 32 32 31 30 29 26 25 25 25 25 24 23 22 24 27 29 29 29 30 33
6 7 8 8 9 9 9 10 11 12 13 15 16 18 19 21 23 24 25 26 28 29 31 33 34 36 37 37 38 40 41 42 42 43 44 45 46 46 45 44 44 45 46 47 47 48 48 47 46 45 43 41 39 38 37 37 36 33 31 31 32 33 34 34 34 33 32 31 30 29 28 27 27 26 25 25 24 23 24 26 28 30 30 31 33
7 8 9 10 11 11 12 13 14 15 17 18 20 21 23 24 26 27 28 29 31 32 34 35 36 37 38 39 40 41 42 42 42 43 44 45 45 45 44 43 41 40 39 40 41 44 45 45 45 45 42 40 39 39 38 38 37 36 35 34 34 34 34 34 34 33 31 30 30 29 29 29 28 26 26 26 25 23 24 26 28 29 30 31 32
9 10 11 11 13 14 15 16 18 19 20 22 23 25 26 28 29 30 31 32 33 34 35 36 37 38 39 40 40 41 42 42 43 43 44 45 45 44 43 42 39 37 34 33 35 39 42 43 44 43 42 41 41 41 40 39 38 38 37 36 35 35 34 34 33 32 30 29 30 30 30 30 29 27 27 27 26 24 24 25 27 29 30 31 32
13 13 13 14 15 15 17 18 19 20 22 23 25 26 27 28 30 31 32 32 33 33 35 36 36 37 38 39 40 40 41 41 41 42 42 42 42 42 40 38 35 32 30 29 32 36 40 41 43 43 42 41 42 41 40 39 38 37 35 34 34 34 33 32 30 29 29 29 30 31 31 30 29 28 27 27 27 26 25 25 26 27 29 30 32
16 16 16 16 17 17 18 19 21 22 24 25 25 26 27 27 28 29 29 30 31 32 33 33 34 35 36 37 38 38 38 38 38 38 38 37 37 37 35 32 30 27 25 27 31 36 38 39 41 41 41 41 42 41 40 38 36 33 30 29 30 30 29 28 28 29 30 31 31 31 31 30 29 28 27 27 28 27 26 26 26 27 29 29 30
17 17 18 18 18 19 20 21 23 24 24 25 25 26 26 27 27 27 27 28 30 31 31 32 32 32 33 33 34 34 34 34 34 34 34 32 30 29 29 28 25 23 22 26 31 34 35 36 37 38 39 39 39 38 36 35 33 30 29 29 29 28 27 26 28 30 32 31 31 31 30 29 29 28 28 27 27 27 27 27 27 28 29 30 30
18 18 19 20 21 22 22 23 24 24 24 24 25 25 26 27 27 28 28 27 28 28 29 30 30 30 31 31 30 30 29 29 29 29 29 28 25 23 23 23 21 20 20 24 29 32 32 33 34 35 35 36 36 36 35 35 33 32 31 31 31 29 28 29 31 32 32 31 31 31 30 29 28 28 27 27 27 27 27 28 28 28 29 29 30
19 19 20 21 22 22 23 23 23 23 24 24 24 25 25 26 26 27 27 27 27 27 27 27 27 28 29 29 28 27 26 26 25 24 23 23 20 17 16 17 19 19 20 23 27 30 32 33 34 35 35 36 36 36 36 36 36 34 33 32 32 31 30 31 33 34 33 31 31 30 29 29 28 27 27 28 27 27 27 27 27 28 28 29 29
19 19 20 21 21 21 22 22 22 23 23 24 24 24 24 24 24 24 24 25 25 24 24 24 23 23 24 25 26 25 24 24 23 21 21 22 21 19 18 19 20 21 22 22 24 26 29 31 33 35 36 37 38 38 38 37 36 34 33 34 34 33 32 33 35 34 33 31 30 29 29 28 27 26 27 28 27 27 27 28 28 28 28 28 29
19 19 20 20 20 20 20 21 21 22 22 23 23 23 23 23 23 23 22 22 22 21 22 22 21 20 20 20 22 22 22 22 21 20 20 20 22 23 24 24 25 27 27 27 27 28 29 31 33 34 36 37 38 39 39 38 37 35 35 37 36 34 34 35 36 34 32 31 30 29 28 28 27 26 27 28 28 27 27 27 28 28 27 27 27
19 20 20 20 20 20 20 21 21 21 21 21 20 20 20 20 20 20 19 19 19 19 19 19 19 19 18 17 18 18 19 19 19 19 19 19 20 22 25 27 29 30 32 33 34 34 35 36 36 36 36 36 36 37 37 38 38 38 38 37 35 34 34 36 36 34 32 31 29 28 28 27 26 26 27 28 28 27 27 27 28 28 27 27 26
19 20 20 20 20 20 20 19 19 18 18 17 16 16 16 17 17 18 18 18 17 17 16 17 17 18 17 16 16 17 18 19 19 20 20 20 21 22 24 26 28 30 32 34 35 36 38 38 38 38 38 38 37 37 37 37 37 37 35 34 33 33 35 35 35 34 32 30 29 28 27 27 26 26 27 28 27 27 27 27 28 28 27 27 26
19 19 19 18 18 18 17 17 16 14 13 13 14 15 16 17 17 17 17 17 16 16 16 17 17 18 18 17 17 18 20 20 20 20 20 21 21 22 23 24 26 28 29 31 33 35 36 38 39 40 40 41 40 40 39 38 37 35 33 32 32 33 34 34 35 34 32 29 28 27 27 26 25 26 27 27 27 26 27 27 27 27 26 26 26
17 17 17 16 16 15 14 13 12 12 12 15 17 19 19 19 18 17 17 17 17 17 17 18 18 18 18 18 18 19 20 21 20 20 20 21 21 21 22 23 24 26 27 29 30 32 34 36 37 39 40 40 40 40 40 38 36 35 33 32 32 33 33 34 34 33 30 27 27 27 26 25 25 26 27 26 26 26 26 26 26 26 25 25 24
15 15 15 14 13 12 11 11 12 14 17 19 20 20 19 19 18 17 17 17 17 17 17 17 17 17 17 18 18 19 20 20 20 20 20 20 20 21 21 21 22 23 25 26 27 29 30 32 34 35 36 36 37 37 37 36 34 32 31 31 31 32 32 31 30 27 26 25 25 26 25 25 25 26 26 25 25 25 25 25 25 25 24 24 23
13 13 12 11 11 11 12 14 16 17 18 18 18 18 18 18 17 17 17 16 16 17 17 17 17 17 18 18 18 18 18 18 18 19 19 19 19 20 20 20 21 22 23 24 25 26 27 28 29 30 30 31 32 33 33 33 32 31 30 30 30 30 29 27 25 24 23 24 24 24 24 25 25 25 25 25 24 24 24 24 24 23 23 22 21
10 10 10 11 12 13 15 16 16 16 16 16 16 16 16 16 16 16 16 16 17 17 17 17 17 17 17 17 17 17 17 17 17 17 18 18 18 19 19 20 20 21 22 22 23 24 25 26 26 26 25 25 26 28 29 30 30 30 30 29 29 28 27 25 23 22 22 23 24 24 24 24 25 25 24 23 23 23 23 22 22 22 21 20 19
9 10 10 11 12 13 14 14 14 14 14 14 14 15 15 15 16 16 16 17 17 17 17 17 17 17 17 17 17 16 16 16 16 17 17 17 18 18 18 19 19 20 20 21 21 22 23 23 24 24 23 22 22 24 26 27 27 28 28 28 28 28 26 23 22 22 22 23 23 23 23 24 24 23 23 22 22 22 21 20 20 20 20 19 18
9 10 10 11 11 12 12 12 12 13 13 14 14 15 15 16 16 16 16 16 16 17 17 17 16 16 16 16 16 16 16 16 16 16 17 17 17 18 18 18 18 19 19 20 20 21 21 21 22 22 22 21 21 22 23 23 23 23 24 25 26 26 24 21 21 21 22 22 22 22 23 24 23 22 21 21 21 20 19 19 18 19 18 18 17
9 9 10 10 11 11 12 12 13 14 14 15 15 16 16 16 16 16 16 16 16 16 16 16 16 16 16 16 17 17 17 17 17 17 17 17 17 17 18 18 18 18 18 18 19 19 20 20 20 21 21 20 20 19 19 19 19 20 20 21 22 21 20 19 20 21 21 21 22 22 23 22 21 21 20 20 19 19 18 17 17 17 17 17 16
8 9 9 10 11 12 13 14 14 15 16 16 16 16 16 16 16 16 15 15 15 15 15 16 16 16 16 17 17 17 17 17 17 17 17 17 17 17 18 17 17 17 17 17 17 18 19 19 19 19 19 19 18 18 17 17 17 18 18 18 18 18 17 18 19 20 20 21 21 21 21 21 20 20 19 18 18 17 17 16 16 16 16 16 15
9 9 10 11 12 13 14 15 15 16 16 16 16 16 16 16 15 15 15 15 15 15 16 16 16 16 17 17 17 17 17 17 17 17 17 17 17 17 17 17 17 17 17 17 16 17 17 17 18 18 18 18 18 18 17 16 16 16 16 16 16 16 17 18 19 19 19 19 20 20 20 20 19 19 18 17 16 16 15 15 15 15 15 15 15
11 11 12 12 13 14 14 15 15 15 15 15 15 15 15 15 15 15 15 15 15 15 16 16 16 16 17 17 17 17 17 17 17 17 17 16 17 17 17 17 17 17 17 17 16 16 16 17 17 17 18 18 18 17 17 16 15 15 15 15 15 16 17 17 18 18 18 18 19 19 19 19 18 17 16 15 15 15 14 14 15 15 15 15 15
12 12 13 13 14 14 14 14 14 14 14 14 14 14 14 15 15 15 15 16 16 16 16 16 16 17 17 17 17 17 17 17 17 16 16 16 16 16 16 16 16 16 16 16 16 16 16 16 16 16 17 17 17 16 16 16 15 15 15 15 15 15 16 16 16 17 17 17 17 17 17 17 17 16 15 14 14 14 14 14 15 15 15 15 15
Wind_Direction
214 210 205 202 201 198 197 197 195 194 193 194 196 195 194 194 193 193 193 192 193 192 194 196 200 206 208 210 214 215 218 223 234 249 268 292 310 315 308 296 285 274 260 251 249 253 259 263 268 273 280 286 287 287 288 288 289 292 297 303 310 315 318 321 319 319 323 326 328 332 333 332 333 334 333 332 332 330 328 327 326 325 325 324 323
214 210 206 204 202 199 198 198 197 195 195 196 197 197 197 196 196 196 196 196 197 198 200 203 207 211 212 215 218 219 222 228 236 246 258 281 302 305 296 286 278 266 255 250 249 252 260 267 273 276 278 280 281 281 282 283 285 289 295 300 306 311 315 317 317 317 319 323 327 329 331 331 331 333 332 331 331 329 327 327 326 324 324 325 324
215 211 207 205 203 200 200 200 199 198 198 199 199 199 200 199 199 200 199 199 200 201 206 210 213 215 216 219 222 222 225 229 237 246 252 274 296 297 287 278 273 265 257 256 255 257 264 271 275 278 277 277 278 278 278 280 283 287 292 298 303 307 311 312 313 314 316 320 325 328 329 330 330 331 332 330 329 328 327 326 325 325 326 327 327
215 212 209 207 203 201 201 202 201 201 201 201 202 202 202 203 203 202 202 204 205 207 210 213 216 218 220 223 224 225 227 231 240 246 247 268 289 288 281 275 269 265 261 261 263 266 269 274 277 278 276 276 277 278 278 280 282 285 291 295 299 303 306 308 310 312 313 317 322 324 326 328 329 330 331 329 327 326 326 325 325 326 328 329 328
214 212 210 208 204 202 203 204 204 204 204 204 204 205 205 206 206 205 205 207 210 212 215 217 219 221 224 226 226 226 228 234 243 246 246 265 282 280 276 273 269 266 264 266 269 272 273 276 280 280 278 277 276 277 278 279 282 285 289 293 296 299 302 304 307 309 311 314 318 322 324 326 328 329 330 328 326 325 325 326 327 329 330 329 327
214 213 212 209 206 204 205 206 206 207 206 206 207 207 208 209 209 208 209 211 214 217 219 221 222 224 226 227 226 227 231 239 244 245 248 263 275 275 272 271 269 266 267 270 272 275 277 279 282 282 281 278 276 276 278 279 281 284 286 290 293 295 299 301 304 307 309 313 316 320 322 324 327 329 329 328 326 327 328 327 328 331 331 330 329
214 213 213 210 208 207 208 208 209 209 209 209 210 210 211 212 212 212 213 215 218 220 221 222 224 226 228 228 227 229 235 241 244 243 248 262 272 273 271 271 271 269 270 273 275 278 280 282 283 284 282 280 277 276 277 278 280 281 283 287 289 293 296 299 302 306 309 312 315 318 321 323 325 326 327 327 327 329 332 330 329 331 332 330 329
215 214 214 212 211 210 210 211 211 211 211 211 212 213 214 215 215 215 217 218 221 223 224 224 225 228 229 227 228 231 237 242 243 242 249 263 271 272 271 271 271 271 271 273 276 279 282 283 284 284 283 281 278 277 277 277 278 280 282 284 287 291 295 298 302 306 309 312 314 317 319 321 323 325 326 329 329 330 334 333 329 328 329 329 328
216 215 215 214 213 213 213 213 213 213 213 213 214 215 216 217 217 218 219 221 223 224 224 225 227 229 230 228 229 233 238 242 242 244 251 263 271 273 272 271 272 272 271 272 275 278 282 283 285 285 283 281 279 277 277 277 278 280 281 283 287 290 294 297 302 305 308 310 312 315 317 319 323 326 327 331 333 330 330 329 325 326 327 326 325
217 217 217 216 215 215 215 215 215 215 215 215 216 217 217 218 219 220 221 223 225 226 225 225 227 229 231 231 233 236 239 242 243 246 253 263 270 272 272 273 273 273 272 272 275 278 281 283 285 285 284 281 279 277 277 277 279 280 282 285 287 291 294 297 301 304 306 307 309 313 315 319 325 328 328 330 330 326 325 326 325 325 324 323 324
218 219 219 219 218 217 217 217 217 217 217 217 218 219 219 220 221 222 223 224 226 227 226 228 229 230 231 233 236 239 241 243 245 247 254 262 268 271 273 275 275 275 274 274 277 280 282 284 285 285 284 282 279 277 276 277 278 280 282 285 288 290 293 297 300 303 304 305 307 312 315 319 324 327 326 326 324 322 324 324 321 319 319 320 321
220 221 221 221 221 220 220 219 219 219 219 220 220 220 221 222 223 224 225 227 228 229 229 230 231 231 233 236 238 240 242 244 246 250 255 261 266 268 272 276 278 277 276 277 279 281 283 285 286 285 285 283 280 278 277 276 277 279 281 283 286 288 291 293 297 299 300 302 306 310 315 319 321 321 321 321 321 321 320 317 315 315 316 318 318
222 223 223 223 224 223 222 222 221 221 222 222 222 221 222 224 225 226 227 229 231 232 232 232 232 233 237 239 240 241 242 244 247 251 256 261 264 266 270 276 279 278 278 280 282 283 284 285 286 287 286 284 281 279 278 277 278 279 280 281 283 285 287 289 292 294 295 299 303 308 312 316 316 315 318 319 317 315 313 313 314 315 317 318 318
225 225 225 225 226 225 224 223 223 224 224 224 223 223 225 226 228 228 230 231 234 234 234 234 235 238 240 241 241 242 243 245 248 252 257 261 264 266 269 273 277 278 279 281 282 284 285 285 285 287 286 284 283 281 279 278 278 278 278 279 281 282 284 286 289 290 292 296 301 305 308 310 311 313 315 313 308 307 309 311 313 315 317 318 318
227 227 228 228 227 226 225 225 226 226 226 225 225 226 227 229 230 231 233 236 237 237 237 237 239 241 242 242 243 243 244 246 249 252 257 262 264 267 269 272 275 276 276 279 282 284 284 285 285 286 285 285 284 281 280 279 278 278 278 278 280 280 281 285 287 289 293 298 300 303 306 308 308 308 306 304 302 304 307 309 311 313 315 316 318
230 230 230 229 228 228 227 227 228 228 228 227 227 228 229 231 232 234 237 238 238 237 238 240 242 242 242 243 244 245 245 246 250 254 258 261 264 268 272 274 274 274 274 277 280 281 282 283 284 285 285 285 284 281 280 279 277 277 278 278 279 279 280 284 287 290 294 295 293 297 302 304 301 298 298 300 302 305 307 310 312 312 312 315 319
234 234 234 233 233 232 231 231 231 230 230 230 230 232 233 234 236 238 239 239 239 239 241 243 243 243 244 246 247 248 248 248 251 255 258 261 264 268 273 275 275 274 274 276 278 279 280 281 282 282 284 285 284 281 279 279 278 278 278 278 279 280 281 285 288 291 292 290 290 295 300 297 294 294 297 299 302 305 308 311 312 312 314 318 322
239 238 239 239 239 238 236 235 234 233 233 234 235 237 237 238 239 241 242 243 243 245 245 245 245 246 247 249 249 250 251 251 253 256 259 261 264 268 272 274 274 274 275 276 278 278 278 279 279 280 283 284 283 282 280 279 278 279 279 280 281 281 284 287 289 291 291 291 293 296 298 297 297 298 299 301 303 306 307 308 311 313 316 320 323
243 243 244 245 244 243 241 240 239 238 239 240 241 241 242 243 244 245 246 247 247 247 247 247 248 249 251 252 251 252 253 253 253 256 259 260 263 268 271 272 272 274 276 277 277 277 277 278 278 279 282 283 282 283 282 280 280 280 280 280 281 282 285 288 289 288 289 291 294 298 301 303 301 298 299 302 305 305 305 306 310 315 318 321 323
247 248 249 248 248 248 246 245 244 243 244 245 245 246 247 247 248 249 249 249 249 249 249 250 251 252 253 253 253 254 255 255 255 257 259 261 263 267 270 271 272 274 276 276 276 275 276 276 277 278 280 281 281 282 282 281 280 280 279 278 280 283 287 287 285 285 287 292 297 300 303 304 300 298 300 303 304 303 303 305 310 315 319 321 323
250 250 251 250 251 252 250 250 249 249 250 250 250 251 251 252 253 254 254 253 252 252 253 253 254 255 255 254 255 256 257 258 257 258 259 261 264 266 269 271 273 274 275 274 274 274 274 275 276 277 278 278 280 282 283 283 281 279 278 278 280 284 286 284 283 284 288 293 296 297 299 300 299 299 300 301 301 300 300 304 310 316 319 321 321
253 253 254 253 254 254 253 253 253 252 253 254 254 255 256 256 257 257 257 257 256 256 257 256 257 258 257 257 257 258 258 259 260 259 259 261 263 266 269 271 273 273 273 272 272 272 273 274 275 276 275 276 277 280 282 282 281 279 279 278 279 281 280 279 281 284 287 290 292 294 297 298 296 296 297 296 295 296 297 302 308 313 317 319 319
247 247 248 250 251 252 254 254 255 255 256 257 258 259 260 259 260 260 260 260 260 259 259 259 259 260 260 260 260 261 261 261 262 262 262 262 264 266 268 270 271 271 271 271 272 272 272 272 273 274 274 274 276 277 279 279 277 277 276 275 276 276 275 276 280 284 286 287 290 292 294 295 294 294 294 292 291 293 295 300 306 311 314 316 316
228 231 236 241 245 249 252 253 255 256 256 258 259 260 260 260 261 261 261 261 261 261 261 261 261 261 262 262 262 262 262 262 263 264 264 264 264 265 266 268 269 270 271 271 271 270 270 270 272 273 274 275 275 276 276 276 275 275 274 273 274 274 273 275 280 282 282 284 287 290 291 292 293 293 292 291 291 293 295 299 304 309 311 312 314
214 220 229 236 240 245 248 249 251 253 254 256 258 258 259 260 260 261 261 261 262 262 262 262 262 262 263 262 262 262 263 264 264 265 265 265 265 265 265 266 266 267 269 271 270 270 269 270 270 271 273 274 275 275 275 275 274 273 270 269 272 274 273 275 278 278 279 282 285 287 289 289 290 291 291 290 291 293 296 299 302 307 308 309 311
201 209 218 225 231 237 241 244 247 249 251 253 255 256 258 259 259 260 261 260 261 261 261 261 262 262 262 262 263 264 265 265 266 266 266 266 266 265 265 264 264 264 265 267 270 271 271 270 269 270 272 274 274 274 274 273 272 268 264 265 270 274 274 275 276 276 278 282 283 284 286 287 288 288 288 289 291 294 297 299 302 305 308 309 310
205 210 216 224 229 235 241 244 247 250 252 255 257 258 259 259 259 260 260 260 261 261 262 262 262 263 264 265 266 268 268 269 270 270 270 271 270 270 268 267 266 264 264 265 267 268 270 271 271 273 273 273 274 274 274 274 271 268 265 265 269 273 274 276 277 277 278 280 281 283 285 285 285 286 286 287 290 293 296 298 302 306 309 311 312
227 229 232 237 240 245 252 256 259 263 265 266 267 267 267 267 267 267 268 268 267 267 268 268 268 269 271 272 273 273 273 274 275 276 277 277 277 276 275 273 271 268 266 265 264 264 267 269 271 273 273 272 273 274 275 275 274 273 271 270 270 271 273 275 275 275 276 278 279 281 282 282 283 284 285 287 289 291 294 297 301 305 309 311 313
240 243 245 248 251 255 259 261 264 267 268 270 271 271 272 271 271 272 272 271 271 271 271 272 273 274 275 275 275 276 276 277 278 279 279 279 279 279 278 277 276 273 270 266 263 262 264 265 266 267 268 269 271 271 271 271 271 272 271 270 270 271 271 272 273 273 274 276 278 279 280 280 281 283 284 286 288 291 294 297 300 304 308 310 312
246 250 253 257 259 261 263 264 265 266 266 267 268 269 271 271 272 273 272 271 272 272 273 273 274 274 275 275 275 276 277 279 280 279 279 279 279 279 279 279 279 277 272 264 258 258 259 260 262 263 265 266 267 268 268 268 268 269 269 269 269 270 269 268 269 272 273 275 276 277 278 279 280 282 283 285 287 290 293 296 299 303 307 309 311
249 251 253 255 256 259 262 264 266 268 269 270 270 271 271 272 272 273 274 273 273 273 273 274 274 274 275 275 276 276 277 277 278 278 279 279 279 280 280 280 280 278 273 264 258 256 257 258 260 262 264 265 267 268 268 268 267 267 268 268 267 266 266 267 270 273 274 274 274 275 276 276 278 280 282 284 287 290 293 296 299 302 305 308 310
253 253 254 254 255 259 262 266 270 272 272 274 274 274 275 275 274 274 275 275 275 274 273 274 273 274 275 275 276 276 277 276 277 277 277 279 280 282 283 283 281 277 271 263 259 258 257 259 262 265 266 268 270 270 270 270 269 268 268 269 269 269 269 271 275 276 273 272 271 272 273 274 276 278 281 283 287 290 294 297 300 302 304 307 309
258 257 259 261 264 268 270 272 273 273 274 275 276 277 278 279 278 277 275 274 275 276 276 275 275 275 275 275 275 276 277 278 279 280 281 282 283 284 285 285 282 275 267 263 263 264 263 263 265 267 268 269 271 272 273 273 273 271 271 275 279 278 275 276 278 276 272 271 270 270 271 272 274 277 280 282 286 290 294 297 300 301 304 307 309
263 265 267 271 274 275 276 276 276 276 277 278 278 279 279 279 280 280 278 277 276 276 276 276 276 276 275 275 275 275 276 278 280 282 285 288 290 290 289 287 282 271 259 258 263 268 270 271 271 272 272 273 275 276 277 278 277 274 273 277 283 283 276 274 277 277 273 270 269 268 269 271 272 275 279 281 284 289 292 295 299 301 304 307 309
269 272 274 276 278 278 279 279 280 281 282 282 282 282 281 280 281 280 280 280 279 277 276 276 276 276 277 277 278 277 276 275 274 273 275 279 283 286 284 281 278 273 263 258 258 262 266 269 272 274 276 277 278 279 280 279 277 273 272 277 284 284 275 271 277 279 274 269 267 267 268 270 271 274 278 280 283 287 291 294 298 301 304 307 309
276 277 278 279 280 281 282 282 283 283 283 284 284 284 284 284 283 283 282 282 282 282 282 280 278 277 277 277 278 278 276 274 272 268 264 263 263 264 264 262 263 265 263 261 259 259 260 263 266 269 272 275 277 279 279 279 277 274 274 279 285 283 274 271 277 280 275 269 267 266 267 269 271 273 276 279 283 286 290 293 296 299 303 306 307
281 282 283 284 284 283 283 283 283 283 283 284 284 285 285 285 285 284 283 283 284 285 287 287 286 284 280 277 278 278 278 278 277 274 269 263 259 258 259 258 258 258 258 257 257 257 258 259 261 263 266 269 272 274 275 275 275 275 276 279 281 279 274 274 277 278 274 269 266 265 266 268 270 272 274 278 282 285 289 293 296 298 301 304 305
285 286 287 287 287 286 286 286 285 285 285 286 286 287 288 288 288 288 288 288 290 291 293 294 295 293 290 286 283 282 281 281 279 277 274 269 263 260 259 259 260 261 261 261 261 262 262 263 263 263 264 265 266 268 269 271 272 274 276 277 277 276 274 275 276 276 274 270 266 265 266 267 268 271 274 277 281 285 289 292 294 297 300 302 303
288 289 290 289 290 290 289 289 289 289 290 291 293 295 297 298 298 297 297 296 297 298 299 300 299 297 295 291 287 285 283 280 279 278 277 274 272 269 268 266 265 265 265 265 266 266 266 265 265 264 264 264 265 266 267 269 271 273 274 275 274 273 273 273 274 275 275 271 266 263 264 266 268 270 273 276 281 285 288 290 293 295 298 300 302
290 291 292 291 292 292 291 292 292 291 293 299 303 306 307 305 303 301 300 300 301 301 300 299 297 294 292 289 285 283 282 281 282 283 282 280 277 275 273 273 272 271 270 270 269 269 269 268 268 267 266 266 266 266 266 267 268 268 269 270 270 271 271 271 273 275 274 270 264 262 263 265 268 270 273 276 280 284 287 289 291 294 296 300 302
290 291 292 292 292 292 291 289 289 292 299 306 307 307 306 304 301 300 299 298 297 296 293 292 290 289 288 287 284 283 284 286 287 286 284 282 281 279 277 276 276 275 275 274 273 273 272 272 271 271 270 270 269 269 268 267 267 267 267 267 268 268 268 269 272 274 272 266 262 261 263 265 268 270 272 276 280 283 285 288 290 293 296 298 299
288 289 289 289 289 289 288 288 293 298 301 302 301 300 299 298 297 296 295 293 292 290 289 288 288 288 287 286 285 285 287 289 289 288 288 287 287 286 286 285 284 284 283 283 282 281 279 277 276 276 276 275 275 274 271 269 267 266 266 265 266 267 268 269 269 268 264 259 258 259 262 265 267 269 273 277 280 282 284 286 289 292 294 295 297
285 284 285 285 286 289 292 294 296 297 295 294 292 292 292 292 292 292 292 291 291 290 289 289 289 289 288 287 286 286 287 287 287 289 290 291 292 294 295 295 295 296 296 296 295 293 291 290 289 287 285 283 281 280 277 273 269 266 265 264 264 264 265 266 264 260 256 254 255 258 261 264 267 269 273 277 280 282 284 286 289 291 293 294 295
285 283 284 286 290 293 294 294 293 291 290 290 290 290 290 290 290 291 292 292 291 291 291 290 289 289 288 288 288 287 287 287 288 289 291 292 295 298 299 301 303 304 304 305 304 303 302 302 302 300 298 294 287 282 279 276 273 269 266 264 262 261 262 262 259 255 252 252 254 258 261 264 267 270 274 277 279 281 283 286 288 290 291 293 294
287 284 285 288 291 291 290 289 289 289 290 290 290 290 291 291 292 292 292 291 291 290 289 288 288 288 287 287 287 287 287 288 289 290 292 295 297 300 302 304 306 308 308 308 308 307 307 308 308 307 306 302 294 286 282 280 278 274 269 264 261 261 261 260 256 252 251 254 257 259 262 265 267 271 274 277 279 280 282 285 288 289 291 293 292
282 283 285 287 287 288 289 289 290 290 290 290 291 291 291 291 291 290 290 290 289 289 289 288 288 288 287 286 287 288 289 291 292 294 296 298 300 302 304 306 307 309 309 310 309 309 308 308 308 308 309 308 302 295 290 287 283 278 272 267 264 263 263 260 256 254 255 258 259 261 264 266 269 272 275 277 278 279 282 285 287 289 290 291 290
280 282 284 286 288 290 291 291 291 291 290 290 291 290 290 291 290 290 290 290 289 288 288 287 287 288 288 289 290 292 293 295 297 297 298 300 301 302 304 306 307 309 310 310 309 308 307 307 306 307 308 309 307 302 297 292 286 281 277 272 269 266 264 261 258 258 260 261 262 264 266 269 271 273 275 276 277 279 282 285 288 289 290 289 289
278 280 283 286 287 288 288 289 289 289 289 290 290 290 290 290 290 289 288 288 287 287 287 288 289 291 292 293 295 296 296 297 297 297 298 299 300 301 303 306 308 309 310 310 309 307 307 306 306 305 306 308 307 304 300 293 287 283 281 279 275 272 268 264 262 262 263 264 265 267 269 270 272 273 273 274 277 280 283 286 287 288 288 288 289
277 278 280 282 282 283 285 286 286 287 287 288 288 288 288 288 288 288 288 288 287 288 289 290 291 292 293 294 294 295 295 296 296 296 297 298 299 301 303 306 308 309 310 311 311 309 308 307 306 305 305 306 305 303 300 295 290 286 284 280 276 273 269 266 265 265 266 266 268 269 270 271 271 271 272 275 278 281 283 286 287 288 289 290 291
278 279 280 281 281 282 283 282 282 283 284 283 283 285 285 285 285 285 285 286 287 287 288 289 290 290 291 292 292 293 294 294 294 295 296 298 299 301 304 306 308 309 310 311 311 310 309 307 307 307 306 305 303 301 299 295 290 285 279 275 271 268 267 267 267 267 268 268 268 269 269 269 270 271 273 276 279 281 284 286 288 289 290 290 288
280 281 281 282 281 280 280 280 279 280 280 280 280 281 280 280 281 282 282 284 285 286 287 289 290 290 290 291 291 292 292 293 294 295 298 300 302 303 306 307 308 309 311 312 312 312 311 309 308 308 306 304 302 300 298 295 292 287 282 278 274 272 271 270 269 269 269 269 268 268 268 268 270 271 273 276 279 282 284 286 287 288 288 287 286